Weather History for Cross City, FL

Change the Weather History Date:

Wednesday, January 23, 2013

  Actual Average Record
Temperature  
Mean Temperature 48 °F 54 °F  
Max Temperature 67 °F 67 °F 79 °F (1999)
Min Temperature 29 °F 41 °F 23 °F (2011)
Degree Days  
Heating Degree Days 17 11  
Month to date heating degree days 144 286  
Since 1 July heating degree days 568 791  
Cooling Degree Days 0 0  
Month to date cooling degree days 41 0  
Year to date cooling degree days 41 0  
Moisture  
Dew Point 33 °F    
Average Humidity 64    
Maximum Humidity 89    
Minimum Humidity 29    
Precipitation  
Precipitation 0.00 in 0.14 in 2.78 in (1999)
Month to date precipitation 0.46 3.04  
Year to date precipitation 0.46 3.04  
Sea Level Pressure  
Sea Level Pressure 30.34 in    
Wind  
Wind Speed 3 mph (North)    
Max Wind Speed 12 mph    
Max Gust Speed -    
T = Trace of Precipitation, MM = Missing Value Source: NWS Daily Summary

Daily Weather History Graph

Daily Weather History Graph

Search for Another Location

Airport:

Trip Planner

Search our weather history database for the weather conditions in past years. The results will help you decide how hot, cold, wet, or windy it might be!

Date:

Astronomy

Jan. 23, 2013 Rise Set
Actual Time 7:26 AM EST 6:02 PM EST
Civil Twilight 7:00 AM EST 6:28 PM EST
Nautical Twilight 6:31 AM EST 6:57 PM EST
Astronomical Twilight 6:03 AM EST 7:25 PM EST
Moon 3:15 PM EST (1/23) 4:33 AM EST (1/23)
Length of Visible Light 11h 27m
Length of Day
10h 36m
Waxing Gibbous, 89% of the Moon is Illuminated
Jan 23
Waxing Gibbous
Jan 26
Full
Feb 3
Last Quarter
Feb 10
New
Feb 17
First Quarter

Hourly Weather History & Observations

Time (EST) Temp. Dew Point Humidity Pressure Visibility Wind Dir Wind Speed Gust Speed Precip Events Conditions
12:53 AM 35.1 °F 30.9 °F 85% 30.32 in - Calm Calm - N/A   Unknown
1:53 AM 35.1 °F 30.0 °F 82% 30.33 in - Calm Calm - N/A   Unknown
2:53 AM 33.1 °F 30.0 °F 89% 30.33 in - Calm Calm - N/A   Unknown
3:53 AM 32.0 °F 28.0 °F 85% 30.33 in - Calm Calm - N/A   Unknown
4:53 AM 32.0 °F 28.9 °F 88% 30.33 in - Calm Calm - N/A   Unknown
5:53 AM 30.9 °F 27.0 °F 85% 30.34 in - Calm Calm - N/A   Unknown
6:53 AM 30.0 °F 27.0 °F 88% 30.36 in - Calm Calm - N/A   Unknown
7:53 AM 30.0 °F 26.1 °F 85% 30.38 in - Calm Calm - N/A   Unknown
8:53 AM 39.9 °F 32.0 °F 73% 30.41 in - Calm Calm - N/A   Unknown
9:53 AM 50.0 °F 28.9 °F 44% 30.43 in - NE 8.1 mph - N/A   Unknown
10:53 AM 55.0 °F 28.0 °F 35% 30.43 in - Variable 5.8 mph - N/A   Unknown
11:53 AM 60.1 °F 28.9 °F 31% 30.40 in - NNE 10.4 mph - N/A   Unknown
12:53 PM 62.1 °F 30.0 °F 30% 30.37 in - NE 8.1 mph - N/A   Unknown
1:53 PM 64.0 °F 33.1 °F 31% 30.33 in - NNW 6.9 mph - N/A   Unknown
2:53 PM 66.0 °F 35.1 °F 32% 30.31 in - NNE 6.9 mph - N/A   Unknown
3:53 PM 66.9 °F 36.0 °F 32% 30.31 in - Variable 5.8 mph - N/A   Unknown
4:53 PM 64.9 °F 36.0 °F 34% 30.31 in - NNE 3.5 mph - N/A   Unknown
5:53 PM 59.0 °F 41.0 °F 51% 30.31 in - Calm Calm - N/A   Unknown
6:53 PM 55.0 °F 42.1 °F 62% 30.32 in - West 5.8 mph - N/A   Unknown
7:53 PM 52.0 °F 42.1 °F 69% 30.32 in - Calm Calm - N/A   Unknown
8:53 PM 46.0 °F 39.9 °F 79% 30.32 in - Calm Calm - N/A   Unknown
9:53 PM 41.0 °F 37.9 °F 89% 30.33 in - Calm Calm - N/A   Unknown
10:53 PM 41.0 °F 37.9 °F 89% 30.33 in - Calm Calm - N/A   Unknown
11:53 PM 39.0 °F 36.0 °F 89% 30.32 in - Calm Calm - N/A   Unknown